EW5171 Weather Reports


time (UTC)temp
F
wind
direction
speed
knots
gust
knots
rain 1hr
in
rain 24hr
in
rain mn
in
humidity
%
barometer
mb
20260505051011 41 277 1.7 5.2 0.00 0.01 0.00 96 1011.7
20260505050511 41 231 0.9 5.2 0.00 0.01 0.00 96 1011.7
20260505041504 39 304 0.9 6.1 0.00 0.01 0.00 95 1011.5
20260505041003 39 214 1.7 6.1 0.00 0.01 0.00 95 1011.5
20260505040503 39 248 0.9 5.2 0.00 0.01 0.00 95 1011.5
20260505040006 39 288 0.9 3.5 0.00 0.01 0.00 95 1011.5
20260505035502 39 254 0.9 3.5 0.00 0.02 0.00 95 1011.4
20260505035000 39 236 0.9 3.5 0.00 0.02 0.00 95 1011.5
20260505034501 39 204 0.0 2.6 0.00 0.02 0.00 95 1011.5
20260505034100 39 204 0.0 2.6 0.00 0.02 0.00 95 1011.5
20260505033600 39 260 0.0 2.6 0.00 0.02 0.00 95 1011.6
20260505033101 39 242 0.0 1.7 0.00 0.02 0.00 95 1011.5
20260505032559 39 285 0.0 2.6 0.00 0.02 0.00 95 1011.5
20260505032057 39 254 0.0 2.6 0.00 0.02 0.00 95 1011.6
20260505031559 39 229 0.0 3.5 0.00 0.02 0.00 95 1011.6
20260505031057 39 229 0.9 3.5 0.00 0.02 0.00 95 1011.6
20260505030557 39 246 0.9 4.3 0.00 0.02 0.00 95 1011.6
20260505030103 39 247 0.9 4.3 0.00 0.02 0.00 95 1011.6
20260505025556 39 296 0.9 3.5 0.00 0.03 0.00 95 1011.6
20260505025055 38 246 0.9 1.7 0.00 0.03 0.00 94 1011.7
20260505024555 38 325 0.0 1.7 0.00 0.03 0.00 94 1011.7
20260505024053 38 321 0.0 1.7 0.00 0.03 0.00 94 1011.7
20260505023553 39 216 0.0 4.3 0.00 0.03 0.00 94 1011.7
20260505023057 39 272 0.9 4.3 0.00 0.03 0.00 94 1011.8
20260505022553 39 212 0.0 1.7 0.00 0.03 0.00 94 1011.8
20260505022050 39 213 0.0 1.7 0.00 0.03 0.00 94 1011.8
20260505021552 39 246 0.0 2.6 0.00 0.03 0.00 94 1011.8
20260505021049 39 259 0.0 2.6 0.00 0.03 0.00 94 1011.8
20260505020549 39 261 0.0 1.7 0.00 0.03 0.00 94 1011.8
20260505020052 39 261 0.0 1.7 0.00 0.03 0.00 94 1011.8
20260505015548 39 275 0.0 1.7 0.00 0.10 0.00 94 1011.9
20260505015047 39 236 0.0 2.6 0.00 0.10 0.00 94 1011.8
20260505014547 39 292 0.0 1.7 0.00 0.10 0.00 93 1011.9
20260505014048 39 287 0.0 1.7 0.00 0.10 0.00 93 1011.8
20260505013545 39 290 0.0 1.7 0.00 0.10 0.00 93 1011.9
20260505013044 39 290 0.0 1.7 0.00 0.10 0.00 93 1011.9
20260505012544 39 242 0.0 1.7 0.00 0.10 0.00 93 1011.9
20260505012046 40 242 0.0 1.7 0.00 0.10 0.00 93 1012.0
20260505011550 40 240 0.0 3.5 0.00 0.10 0.00 93 1012.1
20260505011046 40 238 0.0 3.5 0.00 0.10 0.00 93 1012.1
20260505010540 40 271 0.0 1.7 0.00 0.10 0.00 93 1012.1
20260505010040 40 238 0.0 2.6 0.00 0.10 0.00 93 1012.2
20260505005539 40 226 0.0 5.2 0.00 0.11 0.00 93 1012.2
20260505005039 40 300 0.9 5.2 0.00 0.11 0.00 93 1012.2
20260505004540 41 228 0.0 4.3 0.00 0.11 0.00 93 1012.3
20260505004037 40 259 1.7 5.2 0.00 0.11 0.00 93 1012.2
20260505003540 40 263 0.0 4.3 0.00 0.11 0.00 93 1012.3
20260505003036 40 269 0.0 3.5 0.00 0.11 0.00 93 1012.4
20260505002536 40 209 0.0 0.9 0.00 0.11 0.00 92 1012.3
20260505002035 40 234 0.0 0.9 0.00 0.11 0.00 92 1012.4
20260505001535 40 234 0.0 2.6 0.00 0.11 0.00 92 1012.3
20260505001034 40 227 0.9 2.6 0.00 0.11 0.00 92 1012.3
20260505000538 40 308 0.9 2.6 0.00 0.11 0.00 92 1012.2
20260505000034 40 292 0.0 2.6 0.00 0.11 0.00 92 1012.3
20260504235533 40 281 0.0 1.7 0.00 0.13 0.00 92 1012.3
20260504235033 40 289 0.0 2.6 0.00 0.13 0.00 92 1012.3
20260504234532 40 289 0.0 2.6 0.00 0.13 0.00 92 1012.2
20260504234032 40 227 0.9 2.6 0.00 0.13 0.00 92 1012.3
20260504233535 40 240 0.0 1.7 0.00 0.13 0.00 91 1012.2
20260504233031 40 240 0.0 1.7 0.00 0.13 0.00 91 1012.3
20260504232530 40 240 0.0 1.7 0.00 0.13 0.00 91 1012.3
20260504232029 41 286 0.0 0.9 0.00 0.13 0.00 91 1012.3
20260504231528 41 286 0.0 2.6 0.00 0.13 0.00 91 1012.3
20260504231031 41 286 0.0 2.6 0.00 0.13 0.00 90 1012.3
20260504230528 41 243 0.0 1.7 0.00 0.13 0.00 90 1012.3
20260504230029 41 231 0.0 2.6 0.00 0.13 0.00 90 1012.3
20260504225527 41 286 0.0 2.6 0.00 0.15 0.00 90 1012.3
20260504225026 41 294 0.0 2.6 0.00 0.15 0.00 90 1012.3
20260504224527 41 207 0.0 1.7 0.00 0.15 0.00 89 1012.3
20260504224025 41 280 0.0 0.9 0.00 0.15 0.00 89 1012.3
20260504223524 41 280 0.0 0.9 0.00 0.15 0.00 89 1012.2
20260504223024 42 280 0.0 0.9 0.00 0.15 0.00 89 1012.2
20260504222524 42 280 0.0 2.6 0.00 0.15 0.00 89 1012.2
20260504222023 42 280 0.0 2.6 0.00 0.15 0.00 89 1012.2
20260504221524 42 246 0.0 2.6 0.00 0.15 0.00 89 1012.2
20260504221021 42 246 0.9 2.6 0.00 0.15 0.00 88 1012.3
20260504220520 42 274 0.0 3.5 0.00 0.15 0.00 88 1012.3
20260504220023 42 274 0.0 3.5 0.00 0.15 0.00 88 1012.4
20260504215519 43 297 0.0 2.6 0.00 0.21 0.15 88 1012.4
20260504215019 43 282 0.0 2.6 0.00 0.21 0.15 88 1012.4
20260504214518 43 267 0.0 2.6 0.00 0.21 0.15 88 1012.5
20260504214019 43 277 0.0 2.6 0.00 0.21 0.15 88 1012.4
20260504213517 43 278 0.0 2.6 0.00 0.21 0.15 88 1012.4
20260504213017 43 280 0.9 3.5 0.00 0.21 0.15 88 1012.4
20260504212617 43 275 0.9 3.5 0.00 0.21 0.15 88 1012.4
20260504212015 43 252 0.0 2.6 0.00 0.21 0.15 87 1012.3
20260504211516 43 300 0.0 2.6 0.00 0.21 0.15 87 1012.4
20260504211014 43 253 0.0 1.7 0.00 0.21 0.15 87 1012.3
20260504210513 43 253 0.0 2.6 0.00 0.21 0.15 86 1012.2
20260504210013 44 253 0.0 2.6 0.00 0.21 0.15 86 1012.4
20260504205514 44 284 0.0 0.9 0.00 0.25 0.15 86 1012.4
20260504205011 44 284 0.0 1.7 0.00 0.25 0.15 85 1012.4
20260504204511 44 284 0.0 1.7 0.00 0.25 0.15 85 1012.4
20260504204010 44 284 0.0 1.7 0.00 0.25 0.15 85 1012.4
20260504203510 45 284 0.0 5.2 0.00 0.25 0.15 84 1012.3
20260504203012 45 290 0.0 1.7 0.00 0.25 0.15 84 1012.3
20260504202508 45 290 0.0 0.0 0.00 0.25 0.15 83 1012.3
20260504202006 45 290 0.0 0.0 0.00 0.25 0.15 82 1012.4
20260504201506 46 290 0.0 0.0 0.00 0.25 0.15 82 1012.3
20260504201005 46 241 0.0 0.0 0.00 0.25 0.15 81 1012.3
20260504200505 46 241 0.0 0.0 0.00 0.25 0.15 81 1012.3
20260504200004 46 241 0.0 0.0 0.00 0.25 0.15 81 1012.3
20260504195504 47 232 0.0 0.9 0.00 0.26 0.15 80 1012.3
20260504195003 47 221 0.0 0.9 0.00 0.26 0.15 80 1012.2
20260504194503 47 221 0.0 1.7 0.00 0.26 0.15 79 1012.3
20260504194009 47 219 0.0 1.7 0.00 0.26 0.15 79 1012.3
20260504193504 47 257 0.0 2.6 0.00 0.26 0.15 78 1012.2
20260504193004 48 225 0.0 2.6 0.00 0.26 0.15 78 1012.3
20260504192502 48 248 0.0 1.7 0.00 0.26 0.15 78 1012.3
20260504192003 48 297 0.0 2.6 0.00 0.26 0.15 78 1012.3
20260504191506 49 297 0.0 2.6 0.00 0.26 0.15 77 1012.2
20260504191001 49 256 0.9 3.5 0.00 0.26 0.15 77 1012.2
20260504190501 49 284 0.9 7.0 0.00 0.26 0.15 76 1012.1
20260504190111 49 267 0.0 7.0 0.00 0.26 0.15 76 1012.1
20260504185602 49 292 0.0 6.1 0.00 0.26 0.15 76 1012.1
20260504185100 50 262 2.6 7.8 0.00 0.26 0.15 76 1012.0
20260504184615 50 289 1.7 7.0 0.00 0.26 0.15 75 1011.9
20260504184059 50 264 2.6 7.8 0.00 0.26 0.15 74 1011.9
20260504183558 51 184 2.6 7.8 0.00 0.26 0.15 74 1011.8
20260504183104 51 314 2.6 6.1 0.00 0.26 0.15 73 1011.8
20260504182557 51 253 0.9 3.5 0.00 0.26 0.15 72 1011.8
20260504182056 52 287 0.9 8.7 0.00 0.26 0.15 72 1011.8
20260504181557 52 255 4.3 8.7 0.00 0.26 0.15 71 1011.8
20260504181057 52 325 1.7 7.8 0.00 0.26 0.15 71 1011.7
20260504180556 52 302 2.6 8.7 0.00 0.26 0.15 71 1011.6
20260504180056 53 273 2.6 11.3 0.00 0.26 0.15 70 1011.7
20260504175556 53 245 0.9 7.0 0.00 0.26 0.15 70 1011.6
20260504175056 53 275 0.9 7.0 0.00 0.26 0.15 69 1011.5
20260504174559 53 203 0.0 10.4 0.00 0.26 0.15 68 1011.5
20260504174054 54 198 1.7 9.6 0.00 0.26 0.15 68 1011.5
20260504173553 54 350 3.5 9.6 0.00 0.26 0.15 67 1011.5
20260504173057 55 297 1.7 9.6 0.00 0.26 0.15 66 1011.4
20260504172552 56 292 2.6 9.6 0.00 0.26 0.15 65 1011.3
20260504172051 57 302 0.9 7.8 0.00 0.26 0.15 64 1011.3
20260504171550 57 296 2.6 7.8 0.00 0.26 0.15 63 1011.2
20260504171050 58 219 1.7 7.0 0.00 0.26 0.15 62 1011.2
20260504170550 58 310 0.9 9.6 0.00 0.26 0.15 62 1011.2
20260504151045 60 258 3.5 13.9 0.00 0.26 0.15 55 1011.0
20260504150543 61 309 1.7 10.4 0.00 0.26 0.15 53 1010.9
20260504141041 62 234 2.6 7.8 0.00 0.26 0.15 47 1010.9
20260504140540 61 232 1.7 9.6 0.00 0.26 0.15 49 1010.8
20260504130536 63 275 2.6 9.6 0.00 0.26 0.15 39 1010.6
20260504110522 59 286 3.5 12.2 0.00 0.26 0.15 48 1010.1
20260504100508 58 202 3.5 7.0 0.00 0.26 0.15 53 1009.8
20260504081549 53 268 4.3 11.3 0.00 0.26 0.15 70 1009.0
20260504081049 53 234 0.9 8.7 0.00 0.26 0.15 74 1009.1
20260504080548 52 261 3.5 11.3 0.00 0.26 0.15 71 1009.0